Torna al catalogo

STARLINK-3955

AttivoComunicazioniVLEO
NORAD 52561·PAYLOAD·🇺🇸 United States

Lanciato May 13, 2022 da Vandenberg Space Force Base

Loading…

Prossimi Passaggi (prossime 24 ore)

TLE

AggiornatoSource: CelesTrak SupGP

Epoca: Sep 14, 2026, 22:20 UTC

1 52561C 22051AE  26257.93104167 -.00035503  00000+0 -10492-2 0  2574
2 52561  53.1585 351.4585 0000939  90.0644 131.0234 15.34400302    10

Traccia STARLINK-3955 in tempo reale con AllMySat

Download on the App Store